User: anonymous   Login
Location: Brno
(49.2000°N, 16.6330°E)
Time: 09:52:10
(UTC+02:00)
Language:

CARTOSAT-1 - Orbit

View from above orbital plane
View from above orbital plane
View from above satellite
View from above satellite

Ground track
Ground track

The orbit data is extracted from the following two-line orbital elements,

1 28649U 05017A   15241.76508850  .00001283  00000-0  16274-3 0  9991
2 28649 097.9333 312.7194 0003056 061.7073 298.4445 14.83425741558519
Epoch (UTC): 29 August 2015 18:21:43
Eccentricity: 0.0003056
inclination: 97.9333°
perigee height: 616 km
apogee height: 620 km
right ascension of ascending node: 312.7194°
argument of perigee: 61.7073°
revolutions per day: 14.83425741
mean anomaly at epoch: 298.4445°
orbit number at epoch: 55851

The dashed part of the orbit path shows where the satellite is in the earth's shadow,  

DLR